Location: Artiguedieu
(43.5000°N, 0.5454°E)
Time: 18:25:41
(UTC+00:00)

Transit 2A Rocket - Pass Details

Date: 05 August 2021
Orbit: 586 x 916 km, 66.7° (Epoch: 21 September)

Event Time Altitude Azimuth Distance (km) Brightness Sun altitude
Rises 14:23:17 0° 252° (WSW) 2,883 8.6 50.2°
Reaches altitude 10° 14:25:58 10° 269° (W) 2,022 7.9 49.8°
Maximum altitude 14:29:25 21° 318° (NW) 1,494 6.9 49.3°
Drops below altitude 10° 14:33:07 10° 7° (N) 2,171 7.2 48.7°
Sets 14:36:07 0° 24° (NNE) 3,162 7.9 48.2°
